Location: Les Jeannots
(43.2262°N, 5.5774°E)
Time: 17:31:10
(UTC+00:00)

ALOS 2 - Pass Details

Date: 05 July 2020
Orbit: 630 x 632 km, 97.9° (Epoch: 13 August)

Event Time Altitude Azimuth Distance (km) Brightness Sun altitude
Exits shadow 23:35:17 45° 265° (W) 868 3.2 -24.1°
Drops below altitude 10° 23:39:26 10° 335° (NNW) 2,023 6.1 -24.1°
Sets 23:41:43 0° 341° (NNW) 2,935 7.2 -24.1°
